EDT,Max TemperatureF,Mean TemperatureF,Min TemperatureF,Max Dew PointF,MeanDew PointF,Min DewpointF,Max Humidity, Mean Humidity, Min Humidity, Max Sea Level PressureIn, Mean Sea Level PressureIn, Min Sea Level PressureIn, Max VisibilityMiles, Mean VisibilityMiles, Min VisibilityMiles, Max Wind SpeedMPH, Mean Wind SpeedMPH, Max Gust SpeedMPH,PrecipitationIn, CloudCover, Events, WindDirDegrees
2012-8-1,84,76,67,70,66,64,93,74,55,29.91,29.86,29.82,10,9,2,13,3,17,0.05,4,Rain-Thunderstorm,172
2012-8-2,89,77,64,68,66,62,97,70,43,29.89,29.86,29.82,10,8,1,10,2,15,0.00,0,,256
2012-8-3,91,79,66,72,68,64,93,69,44,30.07,29.98,29.90,10,9,6,13,2,16,0.00,0,,211
2012-8-4,92,81,70,72,70,66,93,70,47,30.17,30.14,30.08,10,8,4,13,3,18,0.00,1,,157
2012-8-5,88,81,73,75,72,69,88,74,59,30.16,30.03,29.91,10,8,1,28,5,35,0.99,5,Rain-Thunderstorm,186
2012-8-6,83,73,62,70,65,57,97,70,43,30.01,29.98,29.94,10,7,1,14,3,17,0.00,4,,311
2012-8-7,83,71,58,65,60,52,100,67,34,30.04,29.99,29.93,10,8,0,9,1,14,0.00,2,Fog,170
2012-8-8,88,75,62,70,64,58,93,65,36,29.98,29.94,29.91,10,10,9,9,2,10,0.00,1,,169
2012-8-9,89,79,68,70,67,63,97,74,50,29.94,29.90,29.84,10,7,2,21,3,26,0.28,2,Rain-Thunderstorm,190
2012-8-10,80,75,69,73,70,66,100,90,79,29.86,29.81,29.75,10,6,0,12,2,16,0.66,6,Rain-Thunderstorm,316
2012-8-11,85,76,67,73,69,66,97,76,55,29.88,29.81,29.79,10,8,0,16,4,22,0.04,6,Fog,163
2012-8-12,85,75,64,70,65,60,93,69,44,29.92,29.89,29.86,10,9,5,15,4,18,T,2,Rain,227
2012-8-13,84,73,62,64,62,60,93,69,44,29.99,29.94,29.91,10,10,7,12,2,15,0.00,2,,244
2012-8-14,80,71,62,70,65,60,93,80,67,29.96,29.92,29.87,10,10,6,6,0,9,0.02,3,Rain,20
2012-8-15,83,74,65,68,66,63,97,78,58,29.88,29.86,29.83,10,8,2,16,3,21,0.22,4,Rain-Thunderstorm,2
2012-8-16,84,73,62,65,62,58,93,68,43,29.91,29.87,29.83,10,9,2,10,2,18,0.00,3,,263
2012-8-17,86,73,60,68,64,57,97,74,51,29.87,29.82,29.75,10,9,4,15,3,20,0.13,3,Rain,242
2012-8-18,78,67,56,65,59,54,93,70,46,29.94,29.88,29.84,10,10,6,10,2,14,0.19,4,Rain,35
2012-8-19,75,63,51,59,54,49,93,70,46,29.99,29.95,29.91,10,10,9,7,1,14,0.00,1,,285
2012-8-20,79,67,55,64,59,53,93,69,45,29.93,29.89,29.82,10,9,2,10,1,15,0.46,4,Rain,318
2012-8-21,80,70,60,63,60,55,97,71,45,30.08,30.00,29.91,10,7,0,10,2,17,0.01,3,Fog-Rain,330
2012-8-22,82,70,58,62,59,50,97,66,35,30.14,30.11,30.07,10,10,7,8,1,22,0.00,1,,246
2012-8-23,85,72,59,64,60,54,93,64,34,30.14,30.11,30.07,10,9,5,10,2,13,0.00,0,,236
2012-8-24,86,73,59,66,60,55,97,67,37,30.17,30.15,30.12,10,7,2,6,1,8,0.00,0,,234
2012-8-25,108,82,62,65,62,59,93,60,27,30.28,30.24,30.18,10,8,5,9,2,13,0.00,1,,125
2012-8-26,83,73,63,62,58,52,93,65,36,30.32,30.26,30.21,10,10,10,9,2,16,0.00,0,,138
2012-8-27,84,73,62,70,67,60,93,76,58,30.20,30.06,29.92,10,9,2,12,3,20,0.36,4,Rain,189
2012-8-28,85,73,61,72,67,60,93,69,44,29.91,29.84,29.77,10,8,1,13,4,17,0.18,4,Rain,309
2012-8-29,77,66,55,58,53,48,90,64,38,30.02,29.97,29.90,10,10,10,13,3,18,0.00,0,,359
2012-8-30,80,65,49,58,52,47,96,65,33,30.09,30.04,30.01,10,10,10,12,3,15,0.00,0,,219
2012-8-31,90,73,56,62,57,53,93,63,32,30.03,29.95,29.86,10,10,10,15,7,20,0.00,0,,223